カタログに戻る

THORAD AGENA D DEB

運用中SSO
NORAD 42490·DEBRIS·🇺🇸 United States

打ち上げ Apr 8, 1970 から Vandenberg Space Force Base

Loading…

次のパス (今後24時間)

TLE

経年Source: Space-Track

元期: Sep 4, 2026, 01:14 UTC

1 42490U 70025QU  26247.05142025  .00000464  00000-0  73050-3 0  9995
2 42490  99.9435 186.5396 0112525 274.7156  84.1136 13.53426416583224

AllMySatでTHORAD AGENA D DEBをリアルタイム追跡

Download on the App Store